Regional Weather Roundup
Issued by NWS

Home | Current Version | Previous Version | Graphics & Text | Print | Product List | Glossary On
Versions: 1 2 3 4 5 6 7 8 9 10 11 12 13 14 15 16 17 18 19 20 21 22 23 24 25 26 27 28 29 30 31 32 33 34 35 36 37 38 39 40 41 42 43 44 45 46 47 48 49 50
000
ASUS43 KFSD 290510
RWRSD

WEATHER ROUNDUP FOR SOUTH DAKOTA
NATIONAL WEATHER SERVICE SIOUX FALLS SD
1100 PM CST FRI NOV 28 2014

NOTE: "FAIR" INDICATES FEW OR NO CLOUDS BELOW 12,000 FEET WITH NO
SIGNIFICANT WEATHER AND/OR OBSTRUCTIONS TO VISIBILITY.


SDZ001>005-009-010-012>017-290600-
NORTHWEST AND NORTH CENTRAL SOUTH DAKOTA

CITY           SKY/WX    TMP DP  RH WIND       PRES   REMARKS
BUFFALO          N/A     46  28  49 SW12      29.35F
FAITH            N/A     35  27  72 S14       29.43F WCI  26
MOBRIDGE       PTCLDY    26  22  84 SE9       29.43F WCI  17
$$

SDZ012>016-024>037-041>051-057-063-072>074-290600-
SOUTHWEST AND SOUTH CENTRAL SOUTH DAKOTA

CITY           SKY/WX    TMP DP  RH WIND       PRES   REMARKS
RAPID CTY ARPT PTCLDY    49  22  34 W6        29.49F
PIERRE         PTCLDY    30  26  85 SE8       29.46F WCI  22
CUSTER         MOCLDY    46  19  34 W12G18    29.58F
ELLSWORTH AFB  PTCLDY    50  23  34 W9        29.47F
PHILIP         MOCLDY    35  26  69 W7        29.47F WCI  29
PINE RIDGE     CLEAR     49  22  34 MISG      29.55F
SPEARFISH      FAIR      54  19  26 SW17G23   29.48F
WINNER         FAIR      49  26  41 SW9       29.50F
$$

SDZ004>011-016>023-039-040-290600-
NORTHEAST SOUTH DAKOTA

CITY           SKY/WX    TMP DP  RH WIND       PRES   REMARKS
ABERDEEN       PTCLDY    17  13  84 SE8       29.51F WCI   7
WATERTOWN      PTCLDY    21  19  92 S13       29.53F WCI   9
SISSETON         N/A     18  18 100 S17       29.57F WCI   3
$$

SDZ017-020-022-023-036>040-048>070-290600-
SOUTHEAST SOUTH DAKOTA

CITY           SKY/WX    TMP DP  RH WIND       PRES   REMARKS
SIOUX FALLS    CLEAR     24  22  91 E5        29.56F WCI  18
HURON          CLEAR     26  24  92 SE5       29.54F WCI  20
CHAMBERLAIN    PTCLDY    26  24  91 SE5       29.49F WCI  20
MITCHELL       CLEAR     26  25  96 SE5       29.54F FOG     WCI  20
YANKTON        PTCLDY    27  25  93 E5        29.56F WCI  21
$$

ABBREVIATIONS USED IN REMARKS
   TC - TEMPERATURE IN CELSIUS
  WCI - WIND CHILL INDEX
   HX - HEAT INDEX
  VSB - VISIBILITY



USA.gov is the U.S. government's official web portal to all federal, state and local government web resources and services.